Time,TemperatureF,DewpointF,PressureIn,WindDirection,WindDirectionDegrees,WindSpeedMPH,WindSpeedGustMPH,Humidity,HourlyPrecipIn,Conditions,Clouds,dailyrainin,SolarRadiationWatts/m^2,SoftwareType,DateUTC
2013-02-08 00:11:00,23.0,23.0,-100.00,WSW,238,2.0,9.0,100,0.00,,,0.00,0.000000,,2013-02-08 08:11:00,
2013-02-08 00:21:00,23.0,23.0,-100.00,WSW,238,2.0,9.0,100,0.00,,,0.00,0.000000,,2013-02-08 08:21:00,
2013-02-08 00:32:00,23.0,23.0,-100.00,WSW,238,2.0,9.0,100,0.00,,,0.00,0.000000,,2013-02-08 08:32:00,
2013-02-08 00:41:00,23.0,23.0,-100.00,WSW,238,2.0,9.0,100,0.00,,,0.00,0.000000,,2013-02-08 08:41:00,
2013-02-08 00:51:00,22.0,22.0,-100.00,WSW,246,5.0,11.0,100,0.00,,,0.00,0.000000,,2013-02-08 08:51:00,
2013-02-08 01:21:00,22.0,22.0,-100.00,WSW,246,5.0,11.0,100,0.00,,,0.00,0.000000,,2013-02-08 09:21:00,
2013-02-08 01:31:00,22.0,22.0,-100.00,WSW,246,5.0,11.0,100,0.00,,,0.00,0.000000,,2013-02-08 09:31:00,
2013-02-08 01:42:00,22.0,22.0,-100.00,WSW,246,5.0,11.0,100,0.00,,,0.00,0.000000,,2013-02-08 09:42:00,
2013-02-08 01:51:00,21.0,21.0,-100.00,WSW,237,6.0,12.0,100,0.00,,,0.00,0.000000,,2013-02-08 09:51:00,
2013-02-08 02:22:00,21.0,21.0,-100.00,WSW,237,6.0,12.0,100,0.00,,,0.00,0.000000,,2013-02-08 10:22:00,
2013-02-08 02:31:00,21.0,21.0,-100.00,WSW,237,6.0,12.0,100,0.00,,,0.00,0.000000,,2013-02-08 10:31:00,
2013-02-08 02:41:00,21.0,21.0,-100.00,WSW,237,6.0,12.0,100,0.00,,,0.00,0.000000,,2013-02-08 10:41:00,
2013-02-08 02:51:00,21.0,21.0,-100.00,WSW,251,4.0,14.0,99,0.00,,,0.00,0.000000,,2013-02-08 10:51:00,
2013-02-08 03:21:00,21.0,21.0,-100.00,WSW,251,4.0,14.0,99,0.00,,,0.00,0.000000,,2013-02-08 11:21:00,
2013-02-08 03:32:00,21.0,21.0,-100.00,WSW,251,4.0,14.0,99,0.00,,,0.00,0.000000,,2013-02-08 11:32:00,
2013-02-08 03:41:00,21.0,21.0,-100.00,WSW,251,4.0,14.0,99,0.00,,,0.00,0.000000,,2013-02-08 11:41:00,
2013-02-08 03:51:00,20.0,20.0,-100.00,West,281,5.0,13.0,98,0.00,,,-99.99,0.000000,,2013-02-08 11:51:00,
2013-02-08 04:11:00,20.0,20.0,-100.00,West,281,5.0,13.0,98,0.00,,,-99.99,0.000000,,2013-02-08 12:11:00,
2013-02-08 04:22:00,20.0,20.0,-100.00,West,281,5.0,13.0,98,0.00,,,-99.99,0.000000,,2013-02-08 12:22:00,
2013-02-08 04:32:00,20.0,20.0,-100.00,West,281,5.0,13.0,98,0.00,,,-99.99,0.000000,,2013-02-08 12:32:00,
2013-02-08 04:42:00,20.0,20.0,-100.00,West,281,5.0,13.0,98,0.00,,,-99.99,0.000000,,2013-02-08 12:42:00,
2013-02-08 04:51:00,19.0,19.0,-100.00,WNW,292,5.0,10.0,98,0.00,,,0.00,0.000000,,2013-02-08 12:51:00,
2013-02-08 05:11:00,19.0,19.0,-100.00,WNW,292,5.0,10.0,98,0.00,,,0.00,0.000000,,2013-02-08 13:11:00,
2013-02-08 05:21:00,19.0,19.0,-100.00,WNW,292,5.0,10.0,98,0.00,,,0.00,0.000000,,2013-02-08 13:21:00,
2013-02-08 05:32:00,19.0,19.0,-100.00,WNW,292,5.0,10.0,98,0.00,,,0.00,0.000000,,2013-02-08 13:32:00,
2013-02-08 05:42:00,19.0,19.0,-100.00,WNW,292,5.0,10.0,98,0.00,,,0.00,0.000000,,2013-02-08 13:42:00,
2013-02-08 05:51:00,18.0,17.0,-100.00,NW,314,5.0,10.0,97,0.00,,,0.00,0.000000,,2013-02-08 13:51:00,
2013-02-08 06:11:00,18.0,17.0,-100.00,NW,314,5.0,10.0,97,0.00,,,0.00,0.000000,,2013-02-08 14:11:00,
2013-02-08 06:21:00,18.0,17.0,-100.00,NW,314,5.0,10.0,97,0.00,,,0.00,0.000000,,2013-02-08 14:21:00,
2013-02-08 06:32:00,18.0,17.0,-100.00,NW,314,5.0,10.0,97,0.00,,,0.00,0.000000,,2013-02-08 14:32:00,
2013-02-08 06:41:00,18.0,17.0,-100.00,NW,314,5.0,10.0,97,0.00,,,0.00,0.000000,,2013-02-08 14:41:00,
2013-02-08 06:51:00,18.0,17.0,-100.00,NW,306,2.0,11.0,97,0.00,,,0.00,0.000000,,2013-02-08 14:51:00,
2013-02-08 07:11:00,18.0,17.0,-100.00,NW,306,2.0,11.0,97,0.00,,,0.00,0.000000,,2013-02-08 15:11:00,
2013-02-08 07:21:00,18.0,17.0,-100.00,NW,306,2.0,11.0,97,0.00,,,0.00,0.000000,,2013-02-08 15:21:00,
2013-02-08 07:32:00,18.0,17.0,-100.00,NW,306,2.0,11.0,97,0.00,,,0.00,0.000000,,2013-02-08 15:32:00,
2013-02-08 07:41:00,18.0,17.0,-100.00,NW,306,2.0,11.0,97,0.00,,,0.00,0.000000,,2013-02-08 15:41:00,
2013-02-08 07:51:00,20.0,19.0,-100.00,WSW,258,0.0,7.0,97,0.00,,,0.00,40.000000,,2013-02-08 15:51:00,
2013-02-08 08:21:00,20.0,19.0,-100.00,WSW,258,0.0,7.0,97,0.00,,,0.00,40.000000,,2013-02-08 16:21:00,
2013-02-08 08:32:00,20.0,19.0,-100.00,WSW,258,0.0,7.0,97,0.00,,,0.00,40.000000,,2013-02-08 16:32:00,
2013-02-08 08:41:00,20.0,19.0,-100.00,WSW,258,0.0,7.0,97,0.00,,,0.00,40.000000,,2013-02-08 16:41:00,
2013-02-08 08:51:00,20.0,19.0,-100.00,West,262,0.0,7.0,97,0.00,,,0.00,193.000000,,2013-02-08 16:51:00,
2013-02-08 09:12:00,20.0,19.0,-100.00,West,262,0.0,7.0,97,0.00,,,0.00,193.000000,,2013-02-08 17:12:00,
2013-02-08 09:22:00,20.0,19.0,-100.00,West,262,0.0,7.0,97,0.00,,,0.00,193.000000,,2013-02-08 17:22:00,
2013-02-08 09:32:00,20.0,19.0,-100.00,West,262,0.0,7.0,97,0.00,,,0.00,193.000000,,2013-02-08 17:32:00,
2013-02-08 09:42:00,20.0,19.0,-100.00,West,262,0.0,7.0,97,0.00,,,0.00,193.000000,,2013-02-08 17:42:00,
2013-02-08 09:51:00,21.0,20.0,-100.00,SW,236,0.0,7.0,97,0.00,,,0.00,282.000000,,2013-02-08 17:51:00,
2013-02-08 10:12:00,21.0,20.0,-100.00,SW,236,0.0,7.0,97,0.00,,,0.00,282.000000,,2013-02-08 18:12:00,
2013-02-08 10:23:00,21.0,20.0,-100.00,SW,236,0.0,7.0,97,0.00,,,0.00,282.000000,,2013-02-08 18:23:00,
2013-02-08 10:33:00,21.0,20.0,-100.00,SW,236,0.0,7.0,97,0.00,,,0.00,282.000000,,2013-02-08 18:33:00,
2013-02-08 10:42:00,21.0,20.0,-100.00,SW,236,0.0,7.0,97,0.00,,,0.00,282.000000,,2013-02-08 18:42:00,
2013-02-08 10:51:00,22.0,21.0,-100.00,SW,230,0.0,5.0,96,0.00,,,0.00,383.000000,,2013-02-08 18:51:00,
2013-02-08 11:22:00,22.0,21.0,-100.00,SW,230,0.0,5.0,96,0.00,,,0.00,383.000000,,2013-02-08 19:22:00,
2013-02-08 11:32:00,22.0,21.0,-100.00,SW,230,0.0,5.0,96,0.00,,,0.00,383.000000,,2013-02-08 19:32:00,
2013-02-08 11:41:00,22.0,21.0,-100.00,SW,230,0.0,5.0,96,0.00,,,0.00,383.000000,,2013-02-08 19:41:00,
2013-02-08 11:51:00,21.0,20.0,-100.00,WSW,252,0.0,8.0,95,0.00,,,0.00,458.000000,,2013-02-08 19:51:00,
2013-02-08 12:11:00,21.0,20.0,-100.00,WSW,252,0.0,8.0,95,0.00,,,0.00,458.000000,,2013-02-08 20:11:00,
2013-02-08 12:21:00,21.0,20.0,-100.00,WSW,252,0.0,8.0,95,0.00,,,0.00,458.000000,,2013-02-08 20:21:00,
2013-02-08 12:31:00,21.0,20.0,-100.00,WSW,252,0.0,8.0,95,0.00,,,0.00,458.000000,,2013-02-08 20:31:00,
2013-02-08 12:41:00,21.0,20.0,-100.00,WSW,252,0.0,8.0,95,0.00,,,0.00,458.000000,,2013-02-08 20:41:00,
2013-02-08 12:51:00,22.0,21.0,-100.00,West,269,0.0,6.0,95,0.00,,,0.00,267.000000,,2013-02-08 20:51:00,
2013-02-08 13:11:00,22.0,21.0,-100.00,West,269,0.0,6.0,95,0.00,,,0.00,267.000000,,2013-02-08 21:11:00,
2013-02-08 13:21:00,22.0,21.0,-100.00,West,269,0.0,6.0,95,0.00,,,0.00,267.000000,,2013-02-08 21:21:00,
2013-02-08 13:32:00,22.0,21.0,-100.00,West,269,0.0,6.0,95,0.00,,,0.00,267.000000,,2013-02-08 21:32:00,
2013-02-08 13:41:00,22.0,21.0,-100.00,West,269,0.0,6.0,95,0.00,,,0.00,267.000000,,2013-02-08 21:41:00,
2013-02-08 13:51:00,21.0,20.0,-100.00,WNW,295,0.0,6.0,94,0.00,,,0.00,167.000000,,2013-02-08 21:51:00,
2013-02-08 14:11:00,21.0,20.0,-100.00,WNW,295,0.0,6.0,94,0.00,,,0.00,167.000000,,2013-02-08 22:11:00,
2013-02-08 14:21:00,21.0,20.0,-100.00,WNW,295,0.0,6.0,94,0.00,,,0.00,167.000000,,2013-02-08 22:21:00,
2013-02-08 14:31:00,21.0,20.0,-100.00,WNW,295,0.0,6.0,94,0.00,,,0.00,167.000000,,2013-02-08 22:31:00,
2013-02-08 14:41:00,21.0,20.0,-100.00,WNW,295,0.0,6.0,94,0.00,,,0.00,167.000000,,2013-02-08 22:41:00,
2013-02-08 14:51:00,20.0,19.0,-100.00,NW,316,7.0,9.0,95,0.00,,,0.00,113.000000,,2013-02-08 22:51:00,
2013-02-08 15:11:00,20.0,19.0,-100.00,NW,316,7.0,9.0,95,0.00,,,0.00,113.000000,,2013-02-08 23:11:00,
2013-02-08 15:21:00,20.0,19.0,-100.00,NW,316,7.0,9.0,95,0.00,,,0.00,113.000000,,2013-02-08 23:21:00,
2013-02-08 15:31:00,20.0,19.0,-100.00,NW,316,7.0,9.0,95,0.00,,,0.00,113.000000,,2013-02-08 23:31:00,
2013-02-08 15:41:00,20.0,19.0,-100.00,NW,316,7.0,9.0,95,0.00,,,0.00,113.000000,,2013-02-08 23:41:00,
2013-02-08 15:51:00,19.0,18.0,-100.00,NW,311,5.0,13.0,96,0.00,,,0.00,68.000000,,2013-02-08 23:51:00,
2013-02-08 16:11:00,19.0,18.0,-100.00,NW,311,5.0,13.0,96,0.00,,,0.00,68.000000,,2013-02-09 00:11:00,
2013-02-08 16:21:00,19.0,18.0,-100.00,NW,311,5.0,13.0,96,0.00,,,0.00,68.000000,,2013-02-09 00:21:00,
2013-02-08 16:32:00,19.0,18.0,-100.00,NW,311,5.0,13.0,96,0.00,,,0.00,68.000000,,2013-02-09 00:32:00,
2013-02-08 16:41:00,19.0,18.0,-100.00,NW,311,5.0,13.0,96,0.00,,,0.00,68.000000,,2013-02-09 00:41:00,
2013-02-08 16:51:00,18.0,17.0,-100.00,SW,226,7.0,12.0,96,0.00,,,0.00,22.000000,,2013-02-09 00:51:00,
2013-02-08 17:11:00,18.0,17.0,-100.00,SW,226,7.0,12.0,96,0.00,,,0.00,22.000000,,2013-02-09 01:11:00,
2013-02-08 17:21:00,18.0,17.0,-100.00,SW,226,7.0,12.0,96,0.00,,,0.00,22.000000,,2013-02-09 01:21:00,
2013-02-08 17:31:00,18.0,17.0,-100.00,SW,226,7.0,12.0,96,0.00,,,0.00,22.000000,,2013-02-09 01:31:00,
2013-02-08 17:41:00,18.0,17.0,-100.00,SW,226,7.0,12.0,96,0.00,,,0.00,22.000000,,2013-02-09 01:41:00,
2013-02-08 17:51:00,18.0,17.0,-100.00,NNW,337,6.0,13.0,97,0.00,,,0.00,2.000000,,2013-02-09 01:51:00,
2013-02-08 18:21:00,18.0,17.0,-100.00,NNW,337,6.0,13.0,97,0.00,,,0.00,2.000000,,2013-02-09 02:21:00,
2013-02-08 18:32:00,18.0,17.0,-100.00,NNW,337,6.0,13.0,97,0.00,,,0.00,2.000000,,2013-02-09 02:32:00,
2013-02-08 18:41:00,18.0,17.0,-100.00,NNW,337,6.0,13.0,97,0.00,,,0.00,2.000000,,2013-02-09 02:41:00,
2013-02-08 18:51:00,18.0,17.0,-100.00,NNW,347,5.0,14.0,96,0.00,,,0.00,0.000000,,2013-02-09 02:51:00,
2013-02-08 19:11:00,18.0,17.0,-100.00,NNW,347,5.0,14.0,96,0.00,,,0.00,0.000000,,2013-02-09 03:11:00,
2013-02-08 19:21:00,18.0,17.0,-100.00,NNW,347,5.0,14.0,96,0.00,,,0.00,0.000000,,2013-02-09 03:21:00,
2013-02-08 19:32:00,18.0,17.0,-100.00,NNW,347,5.0,14.0,96,0.00,,,0.00,0.000000,,2013-02-09 03:32:00,
2013-02-08 19:41:00,18.0,17.0,-100.00,NNW,347,5.0,14.0,96,0.00,,,0.00,0.000000,,2013-02-09 03:41:00,
2013-02-08 19:51:00,18.0,17.0,-100.00,NNW,343,5.0,12.0,96,0.00,,,0.00,0.000000,,2013-02-09 03:51:00,
2013-02-08 20:22:00,18.0,17.0,-100.00,NNW,343,5.0,12.0,96,0.00,,,0.00,0.000000,,2013-02-09 04:22:00,
2013-02-08 20:32:00,18.0,17.0,-100.00,NNW,343,5.0,12.0,96,0.00,,,0.00,0.000000,,2013-02-09 04:32:00,
2013-02-08 20:42:00,18.0,17.0,-100.00,NNW,343,5.0,12.0,96,0.00,,,0.00,0.000000,,2013-02-09 04:42:00,
2013-02-08 20:51:00,18.0,17.0,-100.00,NNW,344,4.0,11.0,96,0.00,,,0.00,0.000000,,2013-02-09 04:51:00,
2013-02-08 21:22:00,18.0,17.0,-100.00,NNW,344,4.0,11.0,96,0.00,,,0.00,0.000000,,2013-02-09 05:22:00,
2013-02-08 21:31:00,18.0,17.0,-100.00,NNW,344,4.0,11.0,96,0.00,,,0.00,0.000000,,2013-02-09 05:31:00,
2013-02-08 21:41:00,18.0,17.0,-100.00,NNW,344,4.0,11.0,96,0.00,,,0.00,0.000000,,2013-02-09 05:41:00,
2013-02-08 21:51:00,19.0,18.0,-100.00,NNW,335,2.0,10.0,97,0.00,,,0.00,0.000000,,2013-02-09 05:51:00,
2013-02-08 22:11:00,19.0,18.0,-100.00,NNW,335,2.0,10.0,97,0.00,,,0.00,0.000000,,2013-02-09 06:11:00,
2013-02-08 22:21:00,19.0,18.0,-100.00,NNW,335,2.0,10.0,97,0.00,,,0.00,0.000000,,2013-02-09 06:21:00,
2013-02-08 22:31:00,19.0,18.0,-100.00,NNW,335,2.0,10.0,97,0.00,,,0.00,0.000000,,2013-02-09 06:31:00,
2013-02-08 22:41:00,19.0,18.0,-100.00,NNW,335,2.0,10.0,97,0.00,,,0.00,0.000000,,2013-02-09 06:41:00,
2013-02-08 22:51:00,18.0,17.0,-100.00,NNW,337,1.0,8.0,96,0.00,,,0.00,0.000000,,2013-02-09 06:51:00,
2013-02-08 23:11:00,18.0,17.0,-100.00,NNW,337,1.0,8.0,96,0.00,,,0.00,0.000000,,2013-02-09 07:11:00,
2013-02-08 23:21:00,18.0,17.0,-100.00,NNW,337,1.0,8.0,96,0.00,,,0.00,0.000000,,2013-02-09 07:21:00,
2013-02-08 23:31:00,18.0,17.0,-100.00,NNW,337,1.0,8.0,96,0.00,,,0.00,0.000000,,2013-02-09 07:31:00,
2013-02-08 23:42:00,18.0,17.0,-100.00,NNW,337,1.0,8.0,96,0.00,,,0.00,0.000000,,2013-02-09 07:42:00,
2013-02-08 23:51:00,18.0,17.0,-100.00,NNW,328,0.0,5.0,97,0.00,,,0.00,0.000000,,2013-02-09 07:51:00,